Location: Saint-Pons
(44.5935°N, 4.5779°E)
Time: 07:58:14
(UTC+00:00)

Daily predictions for brighter satellites

Satellite Brightness Start Highest point End
(mag) Time Altitude Azimuth Time Altitude Azimuth Time Altitude Azimuth
NOSS 3-1 (A) 4.4 18:25:12 10° NW 18:32:50 76° WSW 18:41:30 10° SSE
Cosmos 1980 3.8 18:31:13 10° SSW 18:36:55 88° ESE 18:42:39 10° NNE
Cosmos 1943 Rocket 3.8 18:33:13 10° N 18:36:57 18° NE 18:40:41 10° E
CZ-2D R/B 4.0 18:33:37 10° S 18:37:23 58° W 18:41:10 10° NNW
Cosmos 1766 3.4 18:33:32 10° S 18:37:27 55° E 18:41:21 10° NNE
STARLINK-1091 4.2 18:33:39 10° NW 18:37:34 44° NNE 18:41:27 10° E
S3M 4.1 18:32:59 10° S 18:39:15 65° E 18:45:36 10° NNE
Ariane Rocket 3.2 18:36:26 10° SE 18:41:22 53° ENE 18:46:18 10° N
YAOGAN 1 3.6 18:37:21 10° S 18:41:33 50° W 18:45:47 10° NNW
STARLINK-1224 3.7 18:37:56 10° SW 18:41:53 56° SE 18:45:50 10° ENE
BREEZE-M DEB (TANK) 3.7 18:28:52 10° WNW 18:43:33 74° SW 18:47:04 10° SE
Cosmos 1386 Rocket 4.4 18:38:11 10° N 18:44:13 65° E 18:50:10 10° SSE
Cosmos 1455 Rocket 3.3 18:40:17 10° SSE 18:44:24 46° E 18:48:35 10° NNE
SL-08 ROCKET BODY 4.5 18:38:18 10° N 18:44:25 65° E 18:50:23 10° SSE
STARLINK-1225 3.6 18:42:35 10° SW 18:46:33 61° SE 18:50:33 10° ENE
Cosmos 1110 Rocket 4.0 18:42:46 10° NNW 18:48:02 67° ENE 18:53:12 10° SSE
STARLINK-1203 3.5 18:44:34 10° SW 18:48:29 68° SE 18:52:25 10° ENE
Cosmos 332 Rocket 3.9 18:44:20 10° NNW 18:49:15 84° WSW 18:54:10 10° SSE
SL-16 R/B 2.6 18:45:14 10° S 18:50:28 40° ESE 18:55:43 10° NE
STARLINK-1072 3.9 18:46:50 10° NW 18:50:45 52° NNE 18:54:14 13° ESE
Cosmos 2333 Rocket 4.2 18:46:00 10° WSW 18:51:01 31° NW 18:56:02 10° N
STARLINK-1230 3.5 18:47:12 10° SW 18:51:11 66° SE 18:55:12 10° ENE
Cosmos 1892 Rocket 3.6 18:47:21 10° N 18:51:51 78° E 18:56:20 10° SSE
USA 186 2.3 18:50:32 10° SE 18:53:47 42° ENE 18:57:01 10° N
STARLINK-1234 3.6 18:51:38 10° WSW 18:54:34 51° NNW 18:57:30 10° NE
Cosmos 1953 4.1 18:53:53 12° E 18:54:38 13° E 18:56:25 10° ENE
ARGOS Delta rocket 4.0 18:49:45 10° SSE 18:54:46 69° ENE 19:00:05 10° N
STARLINK-1096 3.8 18:51:17 10° NW 18:55:14 55° NNE 18:58:31 14° ESE
STARLINK-1243 3.5 18:51:52 10° SW 18:55:53 72° SE 18:59:54 10° ENE
Cosmos 1626 2.7 18:52:51 10° N 18:56:20 37° ENE 18:59:47 10° SE
STARLINK-1079 3.8 18:55:46 10° NW 18:59:43 59° NNE 19:02:49 16° ESE
Okean 1-7 Rocket 3.5 18:55:21 10° N 18:59:46 80° E 19:04:09 10° S
STARLINK-1236 3.5 18:56:30 10° SW 19:00:32 78° SE 19:04:34 10° ENE
STARLINK-1116 3.7 19:00:13 10° NW 19:04:13 62° NNE 19:07:08 17° ESE
SJ-11-01 4.4 18:59:57 10° SSE 19:04:38 85° WSW 19:09:22 10° NNW
H-2A R/B 2.1 19:00:20 10° SSE 19:05:38 73° ENE 19:10:50 10° N
Cosmos 883 Rocket 4.5 19:03:21 10° S 19:09:28 67° E 19:15:41 10° NNE
STARLINK-1269 3.5 19:05:53 10° SW 19:09:56 89° SE 19:14:00 10° ENE
STARLINK-1118 3.7 19:08:15 10° WNW 19:10:13 28° SW 19:11:31 16° SSE
Cosmos 1544 Rocket 3.5 19:07:27 10° S 19:11:48 68° E 19:16:13 10° NNE
STARLINK-1094 3.6 19:09:11 10° NW 19:13:12 71° NNE 19:15:46 21° ESE
Cosmos 1745 Rocket 4.4 19:07:37 10° NNW 19:13:54 70° W 19:20:05 10° S
STARLINK-1200 3.6 19:10:35 10° WSW 19:14:38 85° NNW 19:18:42 10° NE
Cosmos 2297 3.7 19:10:05 10° NNW 19:15:46 70° ENE 19:20:56 13° SE
USA 234 3.3 19:09:35 10° NE 19:16:05 64° SE 19:22:33 10° SW
CZ-2C R/B 4.1 19:12:01 10° NNE 19:16:34 43° E 19:21:01 10° S
STARLINK-1117 3.5 19:13:42 10° NW 19:17:43 76° NNE 19:20:07 23° ESE
Meteor 2-5 Rocket 4.4 19:13:44 10° NNW 19:19:16 56° W 19:24:41 10° S
STARLINK-1192 3.6 19:15:14 10° WSW 19:19:17 79° NNW 19:23:20 10° NE
Cosmos 2237 Rocket 3.3 19:15:20 10° SW 19:20:43 47° WNW 19:26:11 10° NNE
STARLINK-1078 3.5 19:18:11 10° NW 19:22:13 82° NNE 19:24:26 26° ESE
STARLINK-1244 3.7 19:20:02 10° WSW 19:24:05 74° NNW 19:28:01 11° NE
STARLINK-1201 4.1 19:21:25 10° W 19:24:33 42° NNW 19:27:30 11° NE
Cosmos 1302 Rocket 4.0 19:20:19 10° NNW 19:25:35 68° ENE 19:29:43 17° SSE
STARLINK-1108 3.5 19:22:43 10° NW 19:26:46 87° NE 19:28:47 28° ESE
Cosmos 2278 Rocket 4.1 19:22:52 10° NW 19:27:42 30° WSW 19:32:32 10° SSW
Cosmos 1269 Rocket 4.1 19:22:38 10° SSW 19:27:54 83° WNW 19:33:15 10° NNE
CZ-2C R/B 3.1 19:23:52 10° NNE 19:28:35 34° E 19:32:38 13° SSE
STARLINK-1138 3.8 19:24:44 10° WSW 19:28:47 69° NNW 19:32:32 12° NE
STARLINK-1066 3.4 19:28:02 10° WNW 19:31:07 52° SW 19:32:18 31° SSE
STARLINK-1071 3.5 19:27:14 10° WNW 19:31:17 87° SSW 19:33:08 31° SE
STARLINK-1081 3.4 19:28:29 10° WNW 19:31:33 51° SW 19:32:41 31° SSE
STARLINK-1070 3.4 19:28:57 10° WNW 19:31:59 51° SW 19:33:06 32° SSE
STARLINK-1124 3.6 19:28:08 10° WNW 19:32:17 86° SW 19:34:14 31° SE
STARLINK-1069 3.4 19:29:21 10° WNW 19:32:26 51° SW 19:33:34 31° SSE
STARLINK-1085 3.5 19:29:48 10° WNW 19:32:52 50° SW 19:34:00 32° SSE
STARLINK-1086 3.5 19:30:19 10° WNW 19:33:21 49° SW 19:34:25 32° SSE
STARLINK-1143 3.9 19:29:33 10° WSW 19:33:34 65° NNW 19:37:08 13° NE
ARGOS 3.3 19:28:21 10° S 19:33:45 78° WSW 19:39:10 10° NNW
STARLINK-1095 3.5 19:30:45 10° WNW 19:33:47 49° SW 19:34:50 32° SSE
STARLINK-1077 3.5 19:31:12 10° WNW 19:34:13 48° SW 19:35:16 32° SSE
Meteor 1-24 Rocket 4.3 19:29:13 10° NNW 19:34:37 55° W 19:39:49 10° S
STARLINK-1075 3.5 19:31:39 10° WNW 19:34:41 48° SW 19:35:42 32° SSE
Cosmos 2251 Rocket 4.1 19:30:07 10° SSE 19:34:51 33° E 19:39:39 10° NE
SL-8 R/B 4.2 19:30:23 10° WNW 19:35:03 53° N 19:38:02 21° ENE
STARLINK-1093 3.5 19:32:05 10° WNW 19:35:08 48° SW 19:36:10 32° SSE
STARLINK-1074 3.6 19:32:31 10° WNW 19:35:35 47° SW 19:36:36 32° SSE
STARLINK-1110 3.5 19:31:45 10° WNW 19:35:47 81° SW 19:37:29 33° SE
STARLINK-1087 3.6 19:33:01 10° WNW 19:36:02 46° SW 19:37:00 33° S
STARLINK-1088 3.6 19:33:28 10° WNW 19:36:29 46° SW 19:37:26 33° S
STARLINK-1115 3.6 19:33:53 10° WNW 19:36:56 46° SW 19:37:55 33° S
STARLINK-1076 3.6 19:34:20 10° WNW 19:37:22 45° SW 19:38:20 33° S
STARLINK-1092 3.6 19:34:48 10° WNW 19:37:50 45° SW 19:38:47 33° S
STARLINK-1080 3.6 19:35:17 10° WNW 19:38:17 44° SW 19:39:10 33° S
SL-24 R/B 4.0 19:33:53 10° NNE 19:38:29 62° E 19:42:29 10° S
STARLINK-1090 3.7 19:35:43 10° WNW 19:38:42 44° SW 19:39:36 33° S
STARLINK-1089 3.7 19:36:11 10° WNW 19:39:11 43° SW 19:40:02 33° S
STARLINK-1107 3.7 19:36:38 10° WNW 19:39:37 43° SW 19:40:28 33° S
Cosmos 1470 2.6 19:36:50 10° S 19:40:41 89° E 19:44:35 10° N
STARLINK-1241 4.2 19:40:05 10° WSW 19:44:01 55° NNW 19:47:06 16° NE
STARLINK-1119 4.4 19:40:26 10° NW 19:44:22 40° NNE 19:45:48 30° ENE
Cosmos 2315 Rocket 4.1 19:38:32 10° S 19:44:50 84° W 19:51:15 10° N
SL-08 RB Rocket 3.7 19:40:53 13° S 19:44:56 79° WSW 19:49:31 10° NNW
STARLINK-1122 3.6 19:40:55 10° WNW 19:44:56 70° SW 19:46:17 39° SE
SJ-6B 3.4 19:42:06 10° S 19:46:04 59° W 19:50:09 10° NNW
MetOp-A 4.0 19:42:29 18° SSE 19:46:31 78° ENE 19:51:53 10° N
Resurs 1-3 3.5 19:44:44 30° SSE 19:46:51 69° ENE 19:51:13 10° N
ISS -2.4 19:44:24 10° NW 19:47:26 30° NNE 19:48:11 27° NE
Cosmos 1758 3.4 19:44:30 10° S 19:48:35 82° W 19:52:42 10° N
STARLINK-1239 4.3 19:44:41 10° WSW 19:48:37 52° NNW 19:51:30 17° NE
STARLINK-1114 4.4 19:45:26 10° NW 19:49:24 42° NNE 19:50:36 33° ENE
STARLINK-1126 3.7 19:45:34 10° WNW 19:49:33 65° SW 19:50:44 42° SSE
BREEZE-M DEB (TANK) 4.1 19:45:37 10° WNW 19:52:04 47° N 19:53:10 33° NE
BREEZE M DEB (TANK) 4.1 19:41:24 10° SW 19:52:31 43° SSE 19:53:49 36° ESE
CZ-2C R/B 3.9 19:47:36 10° S 19:52:31 48° W 19:57:15 10° NNW
STARLINK-1240 4.4 19:49:20 10° WSW 19:53:14 49° NNW 19:55:56 19° NE
IRIDIUM 104 4.2 19:48:05 10° N 19:53:19 71° E 19:56:26 25° SSE
STARLINK-1082 3.8 19:50:08 10° WNW 19:54:07 60° SW 19:55:08 44° SSE
Resurs 01 Rocket 1.7 19:53:04 43° SE 19:54:13 57° ENE 19:58:33 10° N
STARLINK-1130 (DARKSAT) 4.3 19:50:23 10° NW 19:54:23 45° NNE 19:55:22 37° ENE
Abrixas rocket 3.8 19:52:59 10° SW 19:54:13 21° SSW 19:54:13 21° SSW
Cosmos 2369 Rocket 2.5 19:50:37 10° NNW 19:56:08 48° ENE 19:57:50 37° ESE
STARLINK-1216 4.5 19:54:00 10° W 19:57:53 46° NNW 20:00:23 20° NE
STARLINK-1100 3.9 19:54:43 10° WNW 19:58:40 55° SW 19:59:31 45° S
STARLINK-1084 4.1 19:55:21 10° NW 19:59:23 47° NNE 20:00:09 41° ENE
Meteor 2-15 Rocket 4.4 19:54:48 10° S 20:00:53 87° W 20:07:00 10° N
IRIDIUM 114 4.2 19:57:14 10° N 20:02:30 85° E 20:05:35 25° S
STARLINK-1083 4.0 19:59:20 10° WNW 20:03:16 51° SW 20:03:57 45° S
STARLINK-1098 4.0 20:00:19 10° NW 20:04:22 50° NNE 20:04:55 46° NE
SPOT 3 Rocket 3.8 20:00:43 17° S 20:04:45 67° WSW 20:09:58 10° NNW
Cosmos 1726 3.2 20:06:29 33° NE 20:06:29 33° NE 20:08:49 10° NNE
STARLINK-1125 4.1 20:03:59 10° WNW 20:07:52 47° SW 20:08:23 44° SSW
Nadezhda 1 Rocket 4.3 20:06:17 38° SE 20:07:57 46° E 20:14:01 10° NNE
Meteor 1-21 Rocket 4.1 20:03:19 10° N 20:08:55 88° E 20:11:31 33° S
Cosmos 2228 4.3 20:11:03 28° NE 20:11:03 28° NE 20:13:24 10° NNE
STARLINK-1123 3.9 20:05:19 10° NW 20:09:23 53° NNE 20:09:44 51° NE
IRIDIUM 103 4.4 20:06:25 10° N 20:11:40 80° W 20:14:45 25° S
STARLINK-1109 4.2 20:08:19 10° WNW 20:12:10 43° SW 20:12:32 42° SSW
MOS 1 Rocket 3.5 20:08:25 10° NNE 20:13:39 90° ESE 20:19:04 10° SSW
STARLINK-1097 3.8 20:10:16 10° NW 20:14:21 57° NNE 20:14:29 56° NE
STARLINK-1091 4.4 20:13:01 10° WNW 20:16:50 40° SW 20:17:02 40° SW
Cosmos 1943 3.9 20:19:28 36° ENE 20:19:28 36° ENE 20:23:17 10° NE
Cosmos 292 Rocket 3.6 20:13:42 10° NNW 20:18:31 83° ENE 20:19:07 68° SE
STARLINK-1099 3.8 20:15:15 10° NW 20:19:17 60° NNE 20:19:17 60° NNE
Cosmos 1943 Rocket 2.1 20:15:53 10° NNW 20:21:27 87° WSW 20:22:51 52° SSE
Cosmos 2074 Rocket 3.9 20:17:46 10° N 20:24:04 89° W 20:26:45 37° S
STARLINK-1104 3.9 20:20:14 10° NW 20:24:04 62° N 20:24:04 62° N
STARLINK-1144 3.9 20:25:11 10° NW 20:28:50 62° NNW 20:28:50 62° NNW
Cosmos 1953 3.1 20:29:29 38° SW 20:30:33 49° WNW 20:34:26 10° N
Meteor 2-10 4.1 20:28:33 32° SSW 20:31:09 82° W 20:36:42 10° N
SPOT 1/Viking Rocket 4.0 20:32:06 45° NE 20:32:06 45° NE 20:36:39 10° N
NOSS 3-3 (A) 3.7 20:26:22 10° SSW 20:32:08 71° ESE 20:38:38 10° NE
NOSS 3-3 (C) 3.7 20:26:29 10° SSW 20:32:14 71° ESE 20:38:44 10° NE
Spot 2 Rocket 3.4 20:33:06 73° E 20:33:13 73° ENE 20:38:20 10° N
STARLINK-1103 4.1 20:30:09 10° NW 20:33:37 58° NNW 20:33:37 58° NNW
SL-16 R/B 3.8 20:29:31 10° WSW 20:34:38 34° NW 20:39:47 10° N
Cosmos 2084 Rocket 3.7 20:31:14 10° NW 20:35:19 73° WNW 20:35:19 73° WNW
Cosmos 1610 Rocket 4.3 20:31:52 10° N 20:38:08 77° E 20:39:04 64° SE
STARLINK-1101 4.3 20:35:09 10° NW 20:38:25 54° NW 20:38:25 54° NW
Aureole 2 Rocket 4.3 20:40:41 10° NNW 20:42:44 31° NW 20:42:44 31° NW
STARLINK-1102 4.5 20:40:07 10° NW 20:43:11 48° NW 20:43:11 48° NW
Terra 3.5 20:49:36 23° NNE 20:49:36 23° NNE 20:52:00 10° N
Cosmos 2341 Rocket 4.2 20:48:01 10° N 20:53:51 56° ENE 20:53:51 56° ENE
Cosmos 1603 3.8 20:53:25 33° SW 20:56:00 73° WNW 21:01:39 10° NNE
ATLAS 2AS CENTAUR R/B 3.1 20:49:16 10° NNW 20:56:45 52° NE 20:57:41 49° ENE
USA 234 4.0 20:52:44 10° NE 20:58:59 50° NNW 21:05:14 10° W
Aureole 1 Rocket 4.3 21:07:14 71° E 21:07:14 71° E 21:13:49 10° NNE
CZ-2C R/B 4.2 21:04:15 10° N 21:08:49 32° WNW 21:13:20 10° SW
COSMOS 2455 4.0 21:06:14 10° NNW 21:11:09 32° NE 21:11:09 32° NE
Meteor 1-11 4.4 21:06:39 10° NNW 21:12:06 70° WNW 21:12:06 70° WNW
Cosmos 1656 Rocket 4.2 21:18:03 10° NNW 21:22:37 57° NW 21:22:37 57° NW
ISS -0.2 21:21:08 10° WNW 21:21:09 10° WNW 21:21:09 10° WNW
ERS-1 Rocket 4.0 21:28:47 42° NNW 21:28:47 42° NNW 21:32:09 10° NNW
Resurs 01 Rocket 4.2 21:30:38 14° W 21:31:04 15° W 21:33:33 10° NW
Cosmos 2369 Rocket 3.8 21:35:09 10° NW 21:39:39 27° W 21:39:39 27° W
NOSS 3-4 (A) 4.4 22:08:05 10° NW 22:13:24 53° WNW 22:13:24 53° WNW
NOSS 3-4 (C) 4.3 22:08:10 10° NW 22:13:29 54° WNW 22:13:29 54° WNW
Terra 4.4 22:28:30 17° NW 22:28:30 17° NW 22:29:49 10° NNW
ATLAS 2AS CENTAUR R/B 4.1 22:40:42 10° NW 22:45:08 32° WNW 22:45:08 32° WNW
Cosmos 1980 Rocket 4.5 22:48:42 10° N 22:50:54 18° NNE 22:50:54 18° NNE
